User: anonymous   Login
Location: Bodest
(46.3000°N, 22.5667°E)
Time: 02:05:30
(UTC+00:00)
Language:

Cosmos 1980 Rocket - Orbit

View from above orbital plane
View from above orbital plane
View from above satellite
View from above satellite

Ground track
Ground track

The orbit data is extracted from the following two-line orbital elements,

1 19650U 88102B   22019.53031171 -.00000170  00000-0 -62152-4 0  9995
2 19650  70.9998  88.0106 0013288 159.0652 201.1018 14.15814930713121
Epoch (UTC): 19 January 2022 12:43:38
Eccentricity: 0.0013288
inclination: 70.9998°
perigee height: 830 km
apogee height: 849 km
right ascension of ascending node: 88.0106°
argument of perigee: 159.0652°
revolutions per day: 14.15814930
mean anomaly at epoch: 201.1018°
orbit number at epoch: 71312

The dashed part of the orbit path shows where the satellite is in the earth's shadow,  

DLR